Home   Weather   Kuwait City   Past weeks

Flag for Kuwait Past Weather in Kuwait City, Kuwait — Yesterday and Last 2 Weeks

Now
97 °F

Sunny.


Feels Like: 92 °F
Forecast: 77 / 93 °F
Wind: 22 mph from Northwest

Location: Kuwait International Airport

Current Time: Sep 29, 2016 at 6:18:30 PM

Latest Report: Sep 29, 2016 at 5:00 PM


Visibility: 10 mi

Pressure: 29.77 "Hg

Humidity: 13%

Dew Point: 39 °F

Location of Kuwait CityLocation

Past Weather in Kuwait City — Graph

°F

Kuwait City Temperature Yesterday

Maximum temperature yesterday: 113 °F (at 1:00 PM)
Minimum temperature yesterday: 77 °F (at 5:00 AM)
Average temperature yesterday: 95 °F

High & Low Weather Summary for the Past Weeks

 TemperatureHumidityPressure
High113 °F (Sep 16, 1:00 PM)49% (Sep 14, 10:00 PM)29.86 "Hg (Sep 14, 10:00 PM)
Low73 °F (Sep 20, 5:00 AM)6% (Sep 25, 3:00 PM)29.62 "Hg (Sep 17, 2:00 PM)
Average94 °F19%29.74 "Hg
* Reported Sep 14 5:00 PM — Sep 29 5:00 PM, Kuwait City, Weather by CustomWeather, © 2016

Note: Actual official high and low records may vary slightly from our data, if they occured in-between our weather recording intervals... More about our weather records

Advertising

Kuwait City Weather History for the Previous 24 Hours

Scroll right to see more
 ConditionsComfort  
Time TempWeatherWind HumidityBarometerVisibility
5:00 PM
Thu, Sep 29
97 °FSunny.22 mph13%29.77 "Hg10 mi
4:00 PM99 °FSunny.24 mph14%29.77 "Hg10 mi
3:59 PM99 °FSunny.24 mph14%29.77 "Hg10 mi
3:00 PM99 °FSunny.23 mph15%29.77 "Hg10 mi
2:00 PM100 °FSunny.21 mph15%29.77 "Hg10 mi
1:00 PM100 °FSunny.20 mph15%29.80 "Hg10 mi
10:00 AM93 °FSunny.14 mph21%29.86 "Hg5 mi
9:00 AM90 °FSunny.13 mph24%29.86 "Hg5 mi
8:00 AM86 °FSunny.14 mph29%29.86 "Hg5 mi
7:00 AM84 °FSunny.12 mph31%29.83 "Hg10 mi
6:00 AM84 °FSunny.13 mph33%29.83 "Hg10 mi
5:00 AM84 °FClear.10 mph31%29.80 "Hg10 mi
4:00 AM86 °FClear.13 mph27%29.80 "Hg10 mi
3:00 AM88 °FClear.17 mph25%29.80 "Hg10 mi
2:00 AM90 °FClear.17 mph22%29.80 "Hg10 mi
1:00 AM91 °FClear.13 mph18%29.80 "Hg10 mi
12:00 AM93 °FClear.13 mph16%29.80 "Hg10 mi
11:00 PM
Wed, Sep 28
95 °FClear.14 mph14%29.80 "Hg10 mi
10:00 PM99 °FClear.21 mph13%29.83 "Hg10 mi
9:00 PM99 °FClear.17 mph13%29.83 "Hg10 mi
8:00 PM100 °FClear.16 mph12%29.80 "Hg10 mi
7:00 PM102 °FClear.15 mph11%29.80 "Hg10 mi
6:00 PM104 °FClear.17 mph11%29.77 "Hg10 mi
Weather by CustomWeather, © 2016

See weather overviewHow to use our weather pages